SCP
0 0 0 0 0 0 0 0 0 0 0 0 0 0 0 0 0 0 0 1 1 0 0 0 0 0 0 1 1 0 0 0 0 0 0 0 0 0 0 0 0 0 0
0 0 0 0 0 0 0 0 0 0 0 0 0 0 0 0 0 0 0 0 1 0 0 0 0 0 1 1 1 1 0 0 0 0 0 0 0 0 0 0 0 0 0
0 0 0 0 0 0 0 0 0 0 0 0 0 0 0 0 0 0 0 0 1 1 0 0 0 0 0 1 1 1 1 0 0 0 0 0 0 0 0 0 0 0 0
0 0 0 0 0 0 0 0 0 0 0 0 0 0 0 0 1 1 1 1 1 1 1 0 0 0 0 0 0 0 0 0 0 0 0 0 0 0 0 0 0 0 0
0 0 0 0 1 0 0 1 1 1 1 0 0 0 0 1 1 1 1 0 1 0 0 0 0 0 0 0 0 0 0 0 0 0 0 0 0 0 0 0 0 0 0
0 0 0 1 0 0 1 1 1 1 1 1 0 0 0 0 0 1 0 0 0 0 0 0 0 0 0 0 0 0 0 0 0 -0 0 0 0 0 0 0 0 0 0
1 1 0 1 0 0 1 1 1 1 1 0 0 0 0 0 0 0 0 0 0 0 0 0 0 0 0 0 0 0 0 0 0 0 0 0 0 0 -0 -0 0 0 0
1 1 1 1 1 1 1 0 0 0 0 0 0 0 0 0 0 0 0 0 0 0 0 0 0 0 0 0 0 0 0 0 0 0 0 0 0 0 0 0 0 0 0
1 1 1 1 1 0 0 0 0 0 0 0 0 0 0 0 0 0 0 0 0 0 0 0 0 0 0 0 0 0 0 0 0 0 0 0 0 0 0 0 -0 0 0
0 0 0 0 0 0 0 0 0 0 0 0 0 0 0 0 0 0 0 0 0 0 0 0 0 0 0 0 0 0 0 0 0 0 0 0 0 0 0 0 0 0 0
0 0 0 0 0 0 0 0 0 0 0 0 0 0 0 0 0 0 0 0 0 0 0 0 0 0 0 0 0 0 0 0 0 0 0 0 0 0 0 0 0 -0 0
0 0 0 0 0 0 0 0 0 0 0 0 0 0 0 0 0 0 0 0 0 0 0 0 0 0 0 0 0 0 0 0 0 0 0 0 0 0 0 0 0 -0 0
0 0 0 0 0 0 0 0 0 0 0 0 0 0 0 0 0 0 0 0 0 0 0 0 0 0 0 0 0 0 0 0 0 0 0 0 0 0 0 -0 -0 0 0
0 0 0 0 0 0 0 0 0 0 0 0 0 0 0 0 0 0 0 0 0 0 0 0 0 0 0 0 0 0 0 0 0 0 0 0 0 0 0 0 0 -0 0
0 0 0 0 0 0 0 0 0 0 0 0 0 0 0 0 0 0 0 0 0 0 0 0 0 0 0 0 0 0 0 0 0 0 0 0 0 0 0 0 0 0 0
0 0 0 0 0 0 0 0 0 0 0 0 0 0 0 0 0 0 0 0 0 0 0 0 0 0 0 0 0 0 0 0 0 0 0 0 0 0 0 0 0 0 0
0 0 0 0 0 0 0 0 0 0 0 0 0 0 0 0 0 0 0 0 0 0 0 0 0 0 0 0 0 0 0 0 0 0 0 0 0 0 0 0 0 0 0
0 0 0 0 0 0 0 0 0 0 0 0 0 0 0 0 0 0 0 0 0 0 0 0 0 0 0 0 0 0 0 0 0 0 0 0 0 0 0 0 0 0 0
0 0 0 0 0 0 0 0 0 0 0 0 0 0 0 0 0 0 0 0 0 0 0 0 0 0 0 0 0 0 0 0 0 0 0 0 0 0 0 0 0 0 0
0 0 0 0 0 0 0 0 0 0 0 0 0 0 0 0 0 0 0 0 0 0 0 0 0 0 0 0 0 0 0 0 0 0 0 0 0 0 0 0 0 0 0
0 0 0 0 0 0 0 0 0 0 0 0 0 0 0 0 0 0 0 0 0 0 0 0 0 0 0 0 0 0 0 0 0 0 0 0 0 0 0 0 0 0 0
0 0 0 0 0 0 0 0 0 0 0 0 0 0 0 0 -0 -0 0 0 0 0 0 0 0 0 0 0 0 0 0 0 0 0 0 0 0 0 0 0 0 0 0
0 0 0 0 0 0 0 0 0 0 0 0 0 0 0 0 0 0 0 0 0 0 0 0 0 0 0 0 0 0 0 0 0 0 0 0 0 0 0 0 0 0 0
0 0 0 0 0 0 0 0 0 0 0 0 0 0 0 0 0 0 0 0 0 0 0 0 0 0 0 0 0 0 0 0 0 0 0 0 0 0 0 0 0 0 0
0 0 0 0 0 0 0 0 -0 -0 -0 0 0 0 0 0 0 0 0 0 0 0 0 0 0 0 0 0 0 0 0 0 0 0 0 0 0 0 0 0 -0 -0 0
0 0 0 0 0 0 0 -0 0 0 0 0 0 0 0 0 0 0 0 0 0 0 0 0 0 0 0 0 0 0 0 0 0 0 0 0 0 0 -0 0 0 0 0
Wind_Speed_500mb
18 15 17 17 18 18 17 19 20 23 23 25 26 27 26 27 26 26 27 40 38 37 39 39 40 47 39 39 43 44 45 46 44 39 40 37 35 33 32 30 28 25 22
20 17 16 15 19 19 19 20 20 23 24 25 27 26 27 27 28 29 27 30 43 38 38 39 41 41 41 38 43 50 49 48 50 45 44 44 42 38 37 36 33 30 27
21 22 17 18 17 18 22 22 23 23 27 26 25 25 26 26 26 29 29 28 31 38 37 36 39 42 41 39 39 46 51 52 53 48 46 45 45 42 42 40 40 35 33
28 26 22 19 20 21 22 22 23 25 27 28 26 27 27 27 27 27 24 26 24 24 30 39 37 40 45 48 46 46 47 48 50 56 56 54 53 50 50 43 43 41 37
33 32 24 21 32 28 24 23 22 25 23 22 26 25 26 25 25 22 20 22 21 25 27 31 45 42 42 40 39 43 45 46 48 49 58 63 63 67 48 45 46 45 41
34 32 26 34 30 23 18 16 23 18 21 22 24 27 24 23 19 13 15 17 20 24 24 28 29 27 42 34 33 31 29 40 43 49 57 66 67 72 57 52 48 46 42
22 28 25 26 21 11 13 15 13 18 18 22 23 21 20 15 10 11 14 19 20 22 24 27 26 27 26 37 29 24 27 32 37 38 42 49 63 70 81 80 40 44 41
25 24 21 15 14 13 13 15 15 13 15 14 12 19 16 17 9 22 12 16 23 23 21 25 29 29 25 18 25 35 30 30 29 27 30 32 40 52 49 50 44 42 40
26 26 22 20 18 15 14 18 17 11 8 10 14 10 14 12 28 6 15 19 24 23 23 25 30 28 24 21 26 26 33 26 27 23 25 33 31 45 54 59 43 42 38
31 26 25 22 19 17 18 13 11 7 5 7 9 10 7 13 13 20 20 21 28 24 27 24 31 28 29 24 24 29 32 28 26 20 22 30 31 51 58 50 38 40 36
28 28 25 20 17 15 14 11 7 5 4 3 7 10 12 12 16 24 29 31 32 27 25 25 25 23 28 29 30 26 32 30 34 31 26 27 22 25 52 42 40 38 37
31 26 21 17 16 12 9 6 4 5 4 3 2 6 10 9 16 22 33 34 33 29 33 16 17 23 27 30 32 39 32 33 34 34 34 25 23 31 45 51 42 40 37
28 29 24 20 16 10 6 4 3 4 4 1 4 7 9 11 14 19 29 40 42 40 28 29 20 23 26 30 32 39 30 38 36 35 32 23 23 30 33 38 38 37 41
31 31 29 24 17 11 6 2 3 5 7 8 14 13 9 12 13 17 23 33 49 42 32 26 24 22 30 35 37 38 36 32 31 30 25 21 16 30 37 36 36 38 40
38 38 33 25 18 12 5 1 2 8 14 14 18 19 13 14 16 18 20 23 29 47 48 33 29 34 39 38 37 40 38 36 29 26 25 17 15 29 41 38 35 32 34
42 42 36 27 18 11 5 2 7 12 15 12 11 23 22 19 22 21 22 22 23 31 51 43 44 42 43 41 36 37 36 34 30 23 17 15 15 22 44 44 39 48 35
46 40 32 25 19 13 9 6 6 12 12 15 18 17 21 26 22 24 24 22 25 29 40 47 44 42 45 38 35 33 30 33 33 27 24 18 16 32 50 58 46 50 36
43 38 30 25 17 13 12 7 5 10 13 18 21 28 25 25 33 28 25 26 27 27 33 41 41 42 39 39 36 38 31 27 35 31 25 23 17 12 28 54 48 38 36
46 37 30 21 14 14 13 10 12 16 19 21 25 28 30 32 31 28 28 29 28 29 31 35 38 34 37 33 31 29 32 24 27 34 28 18 14 15 26 25 37 44 46
47 38 30 20 19 16 10 11 16 20 26 28 34 38 37 33 31 31 29 26 28 33 32 32 33 33 31 26 25 32 29 20 30 22 22 24 30 27 22 28 35 45 42
40 30 30 26 19 13 12 18 23 27 29 29 31 33 30 34 44 39 32 25 25 29 31 31 32 30 26 27 25 26 27 25 24 26 21 18 19 25 39 34 41 45 46
42 36 31 25 24 9 23 28 29 32 30 28 30 29 29 34 35 41 37 36 38 31 32 30 30 30 29 27 23 28 27 28 24 14 22 28 19 15 32 38 35 44 29
42 33 26 22 20 22 26 30 32 36 33 29 29 30 31 25 35 36 34 40 36 38 43 36 34 29 29 31 30 31 31 34 34 31 28 28 24 19 11 28 35 38 31
45 42 36 35 30 27 31 32 32 36 34 31 34 32 31 32 27 37 39 35 34 34 33 33 31 31 32 30 34 35 39 43 41 28 24 34 23 20 18 15 15 26 41
33 34 31 29 27 32 34 38 39 28 28 32 33 34 35 37 34 39 41 37 37 36 33 37 36 38 46 49 49 48 39 38 38 26 23 31 25 23 25 28 21 24 28
26 23 19 20 30 36 38 39 37 28 31 31 34 33 36 44 44 40 39 38 38 36 34 32 39 45 44 39 38 42 30 37 37 32 24 25 24 23 11 16 19 26 23
Wind_Direction_500mb
226 230 238 238 238 250 264 276 280 281 280 287 287 283 289 286 289 293 289 293 294 292 291 291 288 291 286 283 276 274 268 272 264 258 255 252 249 246 242 240 241 242 243
227 225 241 247 249 254 262 273 282 278 283 287 292 293 288 288 287 290 290 291 297 294 290 287 285 286 286 280 275 272 269 269 266 265 257 251 249 245 244 240 240 239 237
229 228 237 246 257 263 269 278 287 294 300 296 294 303 296 296 296 292 294 290 286 300 293 286 284 285 287 289 285 277 272 269 260 261 264 265 256 244 243 242 239 238 236
242 247 250 255 260 269 272 275 282 283 292 283 290 290 287 289 290 287 293 288 287 293 299 298 289 287 290 292 290 283 277 268 262 258 261 259 263 253 242 238 237 237 238
256 263 259 260 276 281 271 268 275 286 293 295 297 293 291 287 282 284 283 293 301 304 300 297 298 297 296 298 299 290 272 265 265 267 259 259 259 250 251 243 238 234 237
260 280 257 272 287 280 265 271 279 279 291 297 302 295 290 284 284 279 295 304 307 316 315 316 314 315 313 310 302 309 296 270 265 270 267 260 254 243 243 242 235 233 235
265 265 267 273 276 251 254 280 283 294 304 301 312 307 299 300 302 296 314 305 311 321 323 319 328 315 312 310 315 303 310 294 287 286 277 273 249 237 239 233 235 229 232
260 260 254 256 258 262 266 269 279 285 299 314 328 312 305 297 323 303 314 322 317 333 321 325 326 325 320 300 289 299 303 305 313 292 283 303 242 232 239 242 236 229 228
252 257 247 237 264 261 276 281 291 287 287 313 343 345 323 326 323 306 314 326 334 335 331 332 313 329 323 293 303 319 307 306 310 310 295 291 261 232 232 242 222 225 228
250 247 245 252 257 247 259 264 259 275 293 306 325 346 332 308 329 322 317 324 333 335 327 335 323 350 348 340 313 316 307 299 297 308 304 298 278 242 238 237 216 227 230
236 235 236 238 226 219 226 239 243 243 338 4 332 327 316 315 312 313 310 316 326 323 323 326 322 332 342 349 339 306 304 298 300 298 308 297 267 233 221 217 209 224 233
221 220 222 209 202 208 207 219 252 295 295 307 351 357 341 339 317 321 315 319 321 324 320 307 318 318 332 342 342 332 323 306 298 309 297 304 269 235 220 214 212 225 230
198 214 203 192 197 206 220 262 316 345 16 30 33 356 348 335 329 318 318 317 320 324 323 319 316 314 328 337 338 338 338 326 315 303 299 297 265 224 203 200 221 233 233
195 202 195 195 193 206 221 260 58 80 4 355 346 340 340 325 327 321 318 321 321 322 326 323 319 314 319 325 332 330 335 308 318 324 305 289 284 234 205 210 225 230 223
203 194 193 190 195 202 203 321 343 7 357 354 339 341 348 322 322 315 311 308 307 310 311 313 321 314 316 322 322 328 332 330 306 320 329 291 247 249 222 209 211 218 237
190 191 189 184 194 201 236 324 353 341 345 345 336 327 332 312 324 311 309 302 295 290 296 301 307 310 312 317 321 325 324 328 314 307 309 311 254 255 239 218 216 199 228
190 189 189 187 195 219 253 277 293 312 333 325 322 322 321 319 313 315 305 305 299 294 291 298 303 308 313 316 319 317 319 323 323 299 285 294 280 255 240 230 215 197 214
190 190 189 193 188 227 244 272 301 293 309 314 310 316 311 313 314 312 308 307 298 298 297 302 311 315 317 320 320 323 316 319 321 313 288 286 291 285 251 228 201 208 225
191 192 191 192 202 221 247 275 297 310 311 313 313 310 311 313 313 308 313 310 301 295 293 295 300 309 309 320 315 323 321 320 324 318 306 271 260 251 252 255 209 210 228
189 189 193 210 214 219 248 280 296 304 309 307 305 306 306 307 306 306 310 311 310 301 304 302 302 306 309 308 317 324 328 322 311 321 318 305 240 232 241 230 209 215 223
191 190 196 204 207 235 256 287 308 314 309 306 306 307 307 290 297 296 298 298 309 303 301 301 301 303 297 314 313 315 317 317 315 309 319 322 311 265 237 217 222 225 224
192 200 203 207 221 220 270 289 300 303 304 307 308 305 304 306 310 305 314 304 292 297 299 297 295 295 298 306 305 313 315 309 315 284 329 314 305 310 234 248 213 236 210
195 189 185 203 230 253 270 289 299 309 306 297 301 301 300 295 293 299 300 315 320 306 306 303 294 294 296 293 301 306 303 298 293 288 305 299 288 284 318 248 238 244 234
192 204 216 228 241 267 285 300 307 308 297 288 291 290 285 283 291 287 292 296 296 298 291 286 275 285 284 290 297 293 296 298 294 294 287 278 270 281 277 281 295 288 250
203 215 231 256 264 274 296 316 313 306 296 288 287 290 289 283 279 280 285 289 288 290 293 293 288 290 296 303 295 284 286 289 288 285 269 276 283 278 281 285 310 317 244
210 225 243 285 298 304 304 300 296 294 288 288 288 288 291 293 285 284 280 283 284 290 292 292 296 294 293 297 302 302 281 274 279 280 267 260 262 265 268 276 319 324 291
Wind_Speed_850mb
18 15 17 17 18 18 17 19 20 23 23 25 26 27 26 27 26 26 27 40 38 37 39 39 40 47 39 39 43 44 45 46 44 39 40 37 35 33 32 30 28 25 22
20 17 16 15 19 19 19 20 20 23 24 25 27 26 27 27 28 29 27 30 43 38 38 39 41 41 41 38 43 50 49 48 50 45 44 44 42 38 37 36 33 30 27
21 22 17 18 17 18 22 22 23 23 27 26 25 25 26 26 26 29 29 28 31 38 37 36 39 42 41 39 39 46 51 52 53 48 46 45 45 42 42 40 40 35 33
28 26 22 19 20 21 22 22 23 25 27 28 26 27 27 27 27 27 24 26 24 24 30 39 37 40 45 48 46 46 47 48 50 56 56 54 53 50 50 43 43 41 37
33 32 24 21 32 28 24 23 22 25 23 22 26 25 26 25 25 22 20 22 21 25 27 31 45 42 42 40 39 43 45 46 48 49 58 63 63 67 48 45 46 45 41
34 32 26 34 30 23 18 16 23 18 21 22 24 27 24 23 19 13 15 17 20 24 24 28 29 27 42 34 33 31 29 40 43 49 57 66 67 72 57 52 48 46 42
22 28 25 26 21 11 13 15 13 18 18 22 23 21 20 15 10 11 14 19 20 22 24 27 26 27 26 37 29 24 27 32 37 38 42 49 63 70 81 80 40 44 41
25 24 21 15 14 13 13 15 15 13 15 14 12 19 16 17 9 22 12 16 23 23 21 25 29 29 25 18 25 35 30 30 29 27 30 32 40 52 49 50 44 42 40
26 26 22 20 18 15 14 18 17 11 8 10 14 10 14 12 28 6 15 19 24 23 23 25 30 28 24 21 26 26 33 26 27 23 25 33 31 45 54 59 43 42 38
31 26 25 22 19 17 18 13 11 7 5 7 9 10 7 13 13 20 20 21 28 24 27 24 31 28 29 24 24 29 32 28 26 20 22 30 31 51 58 50 38 40 36
28 28 25 20 17 15 14 11 7 5 4 3 7 10 12 12 16 24 29 31 32 27 25 25 25 23 28 29 30 26 32 30 34 31 26 27 22 25 52 42 40 38 37
31 26 21 17 16 12 9 6 4 5 4 3 2 6 10 9 16 22 33 34 33 29 33 16 17 23 27 30 32 39 32 33 34 34 34 25 23 31 45 51 42 40 37
28 29 24 20 16 10 6 4 3 4 4 1 4 7 9 11 14 19 29 40 42 40 28 29 20 23 26 30 32 39 30 38 36 35 32 23 23 30 33 38 38 37 41
31 31 29 24 17 11 6 2 3 5 7 8 14 13 9 12 13 17 23 33 49 42 32 26 24 22 30 35 37 38 36 32 31 30 25 21 16 30 37 36 36 38 40
38 38 33 25 18 12 5 1 2 8 14 14 18 19 13 14 16 18 20 23 29 47 48 33 29 34 39 38 37 40 38 36 29 26 25 17 15 29 41 38 35 32 34
42 42 36 27 18 11 5 2 7 12 15 12 11 23 22 19 22 21 22 22 23 31 51 43 44 42 43 41 36 37 36 34 30 23 17 15 15 22 44 44 39 48 35
46 40 32 25 19 13 9 6 6 12 12 15 18 17 21 26 22 24 24 22 25 29 40 47 44 42 45 38 35 33 30 33 33 27 24 18 16 32 50 58 46 50 36
43 38 30 25 17 13 12 7 5 10 13 18 21 28 25 25 33 28 25 26 27 27 33 41 41 42 39 39 36 38 31 27 35 31 25 23 17 12 28 54 48 38 36
46 37 30 21 14 14 13 10 12 16 19 21 25 28 30 32 31 28 28 29 28 29 31 35 38 34 37 33 31 29 32 24 27 34 28 18 14 15 26 25 37 44 46
47 38 30 20 19 16 10 11 16 20 26 28 34 38 37 33 31 31 29 26 28 33 32 32 33 33 31 26 25 32 29 20 30 22 22 24 30 27 22 28 35 45 42
40 30 30 26 19 13 12 18 23 27 29 29 31 33 30 34 44 39 32 25 25 29 31 31 32 30 26 27 25 26 27 25 24 26 21 18 19 25 39 34 41 45 46
42 36 31 25 24 9 23 28 29 32 30 28 30 29 29 34 35 41 37 36 38 31 32 30 30 30 29 27 23 28 27 28 24 14 22 28 19 15 32 38 35 44 29
42 33 26 22 20 22 26 30 32 36 33 29 29 30 31 25 35 36 34 40 36 38 43 36 34 29 29 31 30 31 31 34 34 31 28 28 24 19 11 28 35 38 31
45 42 36 35 30 27 31 32 32 36 34 31 34 32 31 32 27 37 39 35 34 34 33 33 31 31 32 30 34 35 39 43 41 28 24 34 23 20 18 15 15 26 41
33 34 31 29 27 32 34 38 39 28 28 32 33 34 35 37 34 39 41 37 37 36 33 37 36 38 46 49 49 48 39 38 38 26 23 31 25 23 25 28 21 24 28
26 23 19 20 30 36 38 39 37 28 31 31 34 33 36 44 44 40 39 38 38 36 34 32 39 45 44 39 38 42 30 37 37 32 24 25 24 23 11 16 19 26 23
Wind_Direction_850mb
226 230 238 238 238 250 264 276 280 281 280 287 287 283 289 286 289 293 289 293 294 292 291 291 288 291 286 283 276 274 268 272 264 258 255 252 249 246 242 240 241 242 243
227 225 241 247 249 254 262 273 282 278 283 287 292 293 288 288 287 290 290 291 297 294 290 287 285 286 286 280 275 272 269 269 266 265 257 251 249 245 244 240 240 239 237
229 228 237 246 257 263 269 278 287 294 300 296 294 303 296 296 296 292 294 290 286 300 293 286 284 285 287 289 285 277 272 269 260 261 264 265 256 244 243 242 239 238 236
242 247 250 255 260 269 272 275 282 283 292 283 290 290 287 289 290 287 293 288 287 293 299 298 289 287 290 292 290 283 277 268 262 258 261 259 263 253 242 238 237 237 238
256 263 259 260 276 281 271 268 275 286 293 295 297 293 291 287 282 284 283 293 301 304 300 297 298 297 296 298 299 290 272 265 265 267 259 259 259 250 251 243 238 234 237
260 280 257 272 287 280 265 271 279 279 291 297 302 295 290 284 284 279 295 304 307 316 315 316 314 315 313 310 302 309 296 270 265 270 267 260 254 243 243 242 235 233 235
265 265 267 273 276 251 254 280 283 294 304 301 312 307 299 300 302 296 314 305 311 321 323 319 328 315 312 310 315 303 310 294 287 286 277 273 249 237 239 233 235 229 232
260 260 254 256 258 262 266 269 279 285 299 314 328 312 305 297 323 303 314 322 317 333 321 325 326 325 320 300 289 299 303 305 313 292 283 303 242 232 239 242 236 229 228
252 257 247 237 264 261 276 281 291 287 287 313 343 345 323 326 323 306 314 326 334 335 331 332 313 329 323 293 303 319 307 306 310 310 295 291 261 232 232 242 222 225 228
250 247 245 252 257 247 259 264 259 275 293 306 325 346 332 308 329 322 317 324 333 335 327 335 323 350 348 340 313 316 307 299 297 308 304 298 278 242 238 237 216 227 230
236 235 236 238 226 219 226 239 243 243 338 4 332 327 316 315 312 313 310 316 326 323 323 326 322 332 342 349 339 306 304 298 300 298 308 297 267 233 221 217 209 224 233
221 220 222 209 202 208 207 219 252 295 295 307 351 357 341 339 317 321 315 319 321 324 320 307 318 318 332 342 342 332 323 306 298 309 297 304 269 235 220 214 212 225 230
198 214 203 192 197 206 220 262 316 345 16 30 33 356 348 335 329 318 318 317 320 324 323 319 316 314 328 337 338 338 338 326 315 303 299 297 265 224 203 200 221 233 233
195 202 195 195 193 206 221 260 58 80 4 355 346 340 340 325 327 321 318 321 321 322 326 323 319 314 319 325 332 330 335 308 318 324 305 289 284 234 205 210 225 230 223
203 194 193 190 195 202 203 321 343 7 357 354 339 341 348 322 322 315 311 308 307 310 311 313 321 314 316 322 322 328 332 330 306 320 329 291 247 249 222 209 211 218 237
190 191 189 184 194 201 236 324 353 341 345 345 336 327 332 312 324 311 309 302 295 290 296 301 307 310 312 317 321 325 324 328 314 307 309 311 254 255 239 218 216 199 228
190 189 189 187 195 219 253 277 293 312 333 325 322 322 321 319 313 315 305 305 299 294 291 298 303 308 313 316 319 317 319 323 323 299 285 294 280 255 240 230 215 197 214
190 190 189 193 188 227 244 272 301 293 309 314 310 316 311 313 314 312 308 307 298 298 297 302 311 315 317 320 320 323 316 319 321 313 288 286 291 285 251 228 201 208 225
191 192 191 192 202 221 247 275 297 310 311 313 313 310 311 313 313 308 313 310 301 295 293 295 300 309 309 320 315 323 321 320 324 318 306 271 260 251 252 255 209 210 228
189 189 193 210 214 219 248 280 296 304 309 307 305 306 306 307 306 306 310 311 310 301 304 302 302 306 309 308 317 324 328 322 311 321 318 305 240 232 241 230 209 215 223
191 190 196 204 207 235 256 287 308 314 309 306 306 307 307 290 297 296 298 298 309 303 301 301 301 303 297 314 313 315 317 317 315 309 319 322 311 265 237 217 222 225 224
192 200 203 207 221 220 270 289 300 303 304 307 308 305 304 306 310 305 314 304 292 297 299 297 295 295 298 306 305 313 315 309 315 284 329 314 305 310 234 248 213 236 210
195 189 185 203 230 253 270 289 299 309 306 297 301 301 300 295 293 299 300 315 320 306 306 303 294 294 296 293 301 306 303 298 293 288 305 299 288 284 318 248 238 244 234
192 204 216 228 241 267 285 300 307 308 297 288 291 290 285 283 291 287 292 296 296 298 291 286 275 285 284 290 297 293 296 298 294 294 287 278 270 281 277 281 295 288 250
203 215 231 256 264 274 296 316 313 306 296 288 287 290 289 283 279 280 285 289 288 290 293 293 288 290 296 303 295 284 286 289 288 285 269 276 283 278 281 285 310 317 244
210 225 243 285 298 304 304 300 296 294 288 288 288 288 291 293 285 284 280 283 284 290 292 292 296 294 293 297 302 302 281 274 279 280 267 260 262 265 268 276 319 324 291